Location: Caltech
(34.1382°N, 118.1253°W)
Time: 01:14:05
(UTC-08:00)

A-11 Canister half - All Passes

Search period start: 06 February 2016 00:00
Search period end: 16 February 2016 00:00
Orbit: 1514 x 1685 km, 47.2° (Epoch: 04 February)

Date Brightness Start Highest point End Pass type
(mag) Time Alt. Az. Time Alt. Az. Time Alt. Az.
06 Feb - 07:43:30 10° SSW 07:52:39 49° SE 08:01:31 10° ENE daylight
06 Feb - 09:48:02 10° WSW 09:57:28 61° NNW 10:06:39 10° NE daylight
06 Feb - 11:55:27 10° WNW 12:03:55 37° N 12:12:18 10° ENE daylight
06 Feb - 14:01:51 10° NW 14:10:44 48° NNE 14:19:37 10° E daylight
06 Feb - 16:06:53 10° WNW 16:16:03 72° SW 16:25:23 10° SE daylight
06 Feb - 18:14:13 10° W 18:19:49 18° SW 18:25:30 10° SSW visible
07 Feb - 07:20:44 10° SSW 07:29:48 46° SE 07:38:34 10° ENE daylight
07 Feb - 09:25:01 10° WSW 09:34:31 64° NNW 09:43:45 10° NE daylight
07 Feb - 11:32:24 10° WNW 11:40:54 37° N 11:49:18 10° ENE daylight
07 Feb - 13:38:55 10° NW 13:47:46 46° NNE 13:56:35 10° E daylight
07 Feb - 15:43:58 10° NW 15:53:11 76° SW 16:02:31 10° SE daylight
07 Feb - 17:50:58 10° W 17:57:00 19° SW 18:03:09 10° SSW visible
08 Feb - 06:57:59 10° SSW 07:06:56 43° SE 07:15:36 10° ENE daylight
08 Feb - 09:02:01 10° WSW 09:11:34 67° NNW 09:20:52 10° NE daylight
08 Feb - 11:09:20 10° WNW 11:17:54 37° N 11:26:20 10° ENE daylight
08 Feb - 13:15:59 10° NW 13:24:47 45° NNE 13:33:32 10° E daylight
08 Feb - 15:21:04 10° NW 15:30:19 81° SW 15:39:39 10° SE daylight
08 Feb - 17:27:45 10° W 17:34:11 21° SW 17:40:43 10° S daylight
09 Feb - 06:35:15 10° SSW 06:44:04 40° SE 06:52:37 10° ENE daylight
09 Feb - 08:39:01 10° WSW 08:48:38 70° NNW 08:57:58 10° NE daylight
09 Feb - 10:46:15 10° WNW 10:54:53 38° N 11:03:21 10° ENE daylight
09 Feb - 12:53:02 10° NW 13:01:48 43° NNE 13:10:30 10° E daylight
09 Feb - 14:58:09 10° NW 15:07:25 85° SW 15:16:46 10° SE daylight
09 Feb - 17:04:36 10° WNW 17:11:22 23° SW 17:18:15 10° S daylight
10 Feb - 06:12:32 10° SSW 06:21:13 37° SE 06:29:37 10° ENE visible
10 Feb - 08:16:02 10° WSW 08:25:42 74° NNW 08:35:04 10° NE daylight
10 Feb - 10:23:11 10° WNW 10:31:52 39° N 10:40:23 10° ENE daylight
10 Feb - 12:30:05 10° NW 12:38:49 42° NNE 12:47:27 10° E daylight
10 Feb - 14:35:14 10° NW 14:44:32 89° SW 14:53:52 10° SE daylight
10 Feb - 16:41:28 10° WNW 16:48:33 25° SW 16:55:44 10° S daylight
11 Feb - 05:49:52 10° S 05:58:22 34° SE 06:06:37 10° ENE visible
11 Feb - 07:53:02 10° WSW 08:02:46 77° NW 08:12:11 10° NE daylight
11 Feb - 10:00:06 10° W 10:08:51 39° NNW 10:17:26 10° NE daylight
11 Feb - 12:07:06 10° NW 12:15:49 41° NNE 12:24:25 10° E daylight
11 Feb - 14:12:20 10° NW 14:21:38 87° NE 14:30:58 10° SE daylight
11 Feb - 16:18:22 10° WNW 16:25:43 28° SW 16:33:11 10° S daylight
12 Feb - 05:27:12 10° S 05:35:30 32° SE 05:43:34 10° ENE visible
12 Feb - 07:30:04 10° WSW 07:39:51 81° NW 07:49:18 10° NE daylight
12 Feb - 09:37:02 10° W 09:45:51 40° NNW 09:54:28 10° NE daylight
12 Feb - 11:44:08 10° NW 11:52:49 40° NNE 12:01:23 10° E daylight
12 Feb - 13:49:25 10° NW 13:58:44 82° NE 14:08:02 10° SE daylight
12 Feb - 15:55:18 10° WNW 16:02:54 30° SW 16:10:36 10° S daylight
13 Feb - 05:04:34 10° S 05:12:40 30° SE 05:20:31 10° ENE visible
13 Feb - 07:07:06 10° SW 07:16:55 85° NW 07:26:24 10° NE daylight
13 Feb - 09:13:56 10° W 09:22:50 41° NNW 09:31:32 10° NE daylight
13 Feb - 11:21:09 10° NW 11:29:49 39° NNE 11:38:20 10° E daylight
13 Feb - 13:26:31 10° NW 13:35:50 79° NE 13:45:07 10° ESE daylight
13 Feb - 15:32:15 10° WNW 15:40:05 32° SW 15:47:59 10° S daylight
14 Feb - 04:41:58 10° S 04:49:49 27° SE 04:57:27 10° ENE visible
14 Feb - 06:44:09 10° SW 06:54:00 89° NW 07:03:31 10° NE daylight
14 Feb - 08:50:51 10° W 08:59:50 42° NNW 09:08:35 10° NE daylight
14 Feb - 10:58:09 10° WNW 11:06:49 39° N 11:15:18 10° ENE daylight
14 Feb - 13:03:36 10° NW 13:12:55 75° NNE 13:22:10 10° ESE daylight
14 Feb - 15:09:12 10° WNW 15:17:15 35° SW 15:25:21 10° S daylight
15 Feb - 04:19:23 10° S 04:26:58 25° SE 04:34:20 10° ENE visible
15 Feb - 06:21:13 10° SW 06:31:06 87° SE 06:40:37 10° NE daylight
15 Feb - 08:27:45 10° W 08:36:50 44° NNW 08:45:40 10° NE daylight
15 Feb - 10:35:09 10° WNW 10:43:48 38° N 10:52:16 10° ENE daylight
15 Feb - 12:40:42 10° NW 12:50:00 71° NNE 12:59:13 10° ESE daylight
15 Feb - 14:46:11 10° WNW 14:54:25 38° SW 15:02:41 10° SSE daylight
